TimeEDT,TemperatureF,Dew PointF,Humidity,Sea Level PressureIn,VisibilityMPH,Wind Direction,Wind SpeedMPH,Gust SpeedMPH,PrecipitationIn,Events,Conditions,WindDirDegrees,DateUTC
12:53 AM,52.0,50.0,93,30.07,7.0,Calm,Calm,-,N/A,,Clear,0,2013-09-27 04:53:00
1:53 AM,51.1,50.0,96,30.07,4.0,Calm,Calm,-,N/A,,Clear,0,2013-09-27 05:53:00
2:53 AM,50.0,48.0,93,30.09,5.0,Calm,Calm,-,N/A,,Clear,0,2013-09-27 06:53:00
2:56 AM,51.8,48.2,88,30.10,1.5,Calm,Calm,-,N/A,,Clear,0,2013-09-27 06:56:00
3:06 AM,50.0,48.2,94,30.10,4.0,Calm,Calm,-,N/A,,Clear,0,2013-09-27 07:06:00
3:53 AM,50.0,48.9,96,30.09,4.0,Calm,Calm,-,N/A,,Clear,0,2013-09-27 07:53:00
4:12 AM,50.0,48.2,94,30.10,1.8,Calm,Calm,-,N/A,,Clear,0,2013-09-27 08:12:00
4:18 AM,50.0,48.2,94,30.10,3.0,Calm,Calm,-,N/A,,Clear,0,2013-09-27 08:18:00
4:37 AM,50.0,48.2,94,30.11,2.0,Calm,Calm,-,N/A,,Clear,0,2013-09-27 08:37:00
4:53 AM,50.0,48.9,96,30.10,2.5,Calm,Calm,-,N/A,,Clear,0,2013-09-27 08:53:00
5:16 AM,50.0,48.2,94,30.11,0.8,Calm,Calm,-,N/A,,Clear,0,2013-09-27 09:16:00
5:27 AM,48.2,46.4,93,30.11,1.5,Calm,Calm,-,N/A,,Clear,0,2013-09-27 09:27:00
5:37 AM,50.0,48.2,94,30.12,0.8,Calm,Calm,-,N/A,,Clear,0,2013-09-27 09:37:00
5:53 AM,50.0,48.0,93,30.11,0.8,Calm,Calm,-,N/A,,Clear,0,2013-09-27 09:53:00
5:58 AM,50.0,48.2,94,30.12,2.5,Calm,Calm,-,N/A,,Clear,0,2013-09-27 09:58:00
6:05 AM,48.2,48.2,100,30.12,3.0,Calm,Calm,-,N/A,,Clear,0,2013-09-27 10:05:00
6:33 AM,48.2,48.2,100,30.13,1.8,Calm,Calm,-,N/A,,Clear,0,2013-09-27 10:33:00
6:53 AM,48.9,48.0,97,30.12,1.2,Calm,Calm,-,N/A,,Clear,0,2013-09-27 10:53:00
6:58 AM,48.2,46.4,93,30.14,3.0,Calm,Calm,-,N/A,,Partly Cloudy,0,2013-09-27 10:58:00
7:07 AM,48.2,48.2,100,30.14,2.0,Calm,Calm,-,N/A,,Partly Cloudy,0,2013-09-27 11:07:00
7:35 AM,48.2,46.4,93,30.15,0.5,Calm,Calm,-,N/A,Fog,Fog,0,2013-09-27 11:35:00
7:43 AM,48.2,46.4,93,30.15,0.2,Calm,Calm,-,N/A,Fog,Fog,0,2013-09-27 11:43:00
7:53 AM,48.9,48.0,97,30.15,3.0,Calm,Calm,-,0.01,,Clear,0,2013-09-27 11:53:00
8:53 AM,57.0,55.0,93,30.16,5.0,Calm,Calm,-,N/A,,Clear,0,2013-09-27 12:53:00
9:53 AM,64.9,55.9,73,30.17,10.0,Calm,Calm,-,N/A,,Clear,0,2013-09-27 13:53:00
10:53 AM,70.0,57.0,63,30.17,10.0,ESE,3.5,-,N/A,,Clear,120,2013-09-27 14:53:00
11:53 AM,75.0,57.0,53,30.17,10.0,Calm,Calm,-,N/A,,Clear,0,2013-09-27 15:53:00
12:53 PM,77.0,54.0,45,30.16,10.0,Calm,Calm,-,N/A,,Partly Cloudy,0,2013-09-27 16:53:00
1:53 PM,77.0,52.0,42,30.14,10.0,Variable,4.6,-,N/A,,Clear,0,2013-09-27 17:53:00
2:53 PM,79.0,51.1,38,30.12,10.0,Calm,Calm,-,N/A,,Clear,0,2013-09-27 18:53:00
3:53 PM,78.1,53.1,42,30.11,10.0,Variable,4.6,-,N/A,,Clear,0,2013-09-27 19:53:00
4:53 PM,79.0,51.1,38,30.09,10.0,East,6.9,-,N/A,,Clear,90,2013-09-27 20:53:00
5:53 PM,78.1,52.0,40,30.09,10.0,SE,9.2,-,N/A,,Clear,130,2013-09-27 21:53:00
6:53 PM,75.9,54.0,46,30.09,10.0,East,3.5,-,N/A,,Clear,100,2013-09-27 22:53:00
7:53 PM,63.0,57.0,81,30.09,10.0,Calm,Calm,-,N/A,,Clear,0,2013-09-27 23:53:00
8:53 PM,59.0,55.0,87,30.09,10.0,Calm,Calm,-,N/A,,Clear,0,2013-09-28 00:53:00
9:53 PM,55.0,52.0,89,30.11,10.0,Calm,Calm,-,N/A,,Clear,0,2013-09-28 01:53:00
10:53 PM,55.0,53.1,93,30.11,9.0,Calm,Calm,-,N/A,,Clear,0,2013-09-28 02:53:00
11:53 PM,53.1,51.1,93,30.11,8.0,Calm,Calm,-,N/A,,Clear,0,2013-09-28 03:53:00